Date String (YYYY-MM-DD hh:mm:ss) UTC,Instrument flags,Ambient pressure (hPa),Sample flow (lpm),Bypass flow (lpm),Sample temperature (°C),Ambient temperature (°C),ASC tube jacket temperature (°C),LED temperature (°C),Box temperature (°C),Sample RH (%),Span deviation,Mass concentration (μg/m³),Mass concentration (μg/m³),Mass concentration (μg/m³)
DateTimeUTC,F1_M11,P_M11,Q1_M11,Q2_M11,T1_M11,T2_M11,T3_M11,T4_M11,T5_M11,U1_M11,ZSPAN_M11,X0_M11,X2_M11,X1_M11
2022-03-31 21:00:00,,0816.6,5.01,0.00,26.7,26.2,00.0,35.5,28.5,06.4,0000.0,0010.10,0003.29,0001.67
2022-03-31 21:01:00,,0816.6,5.02,0.00,26.7,26.2,00.0,35.5,28.5,06.6,0000.0,0009.99,0003.30,0001.69
2022-03-31 21:02:00,,0816.5,4.99,0.00,26.7,26.2,00.0,35.6,28.5,06.5,0000.0,0010.29,0003.30,0001.69
2022-03-31 21:03:00,,0816.5,4.99,0.00,26.7,26.2,00.0,35.6,28.6,07.1,0000.0,0010.39,0003.33,0001.70
2022-03-31 21:04:00,,0816.4,5.01,0.00,26.8,26.2,00.0,35.6,28.7,06.8,0000.0,0010.42,0003.37,0001.73
2022-03-31 21:05:00,,0816.6,5.00,0.00,26.8,26.2,00.0,35.6,28.7,06.7,0000.0,0009.95,0003.36,0001.73
2022-03-31 21:06:00,,0816.5,4.99,0.00,26.8,26.3,00.0,35.6,28.7,07.3,0000.0,0009.78,0003.38,0001.73
2022-03-31 21:07:00,,0816.5,5.01,0.00,26.8,26.3,00.0,35.7,28.7,07.0,0000.0,0010.28,0003.43,0001.75
2022-03-31 21:08:00,,0816.5,5.00,0.00,26.9,26.3,00.0,35.7,28.7,06.9,0000.0,0010.11,0003.39,0001.76
2022-03-31 21:09:00,,0816.4,5.01,0.00,26.9,26.3,00.0,35.7,28.7,07.1,0000.0,0009.51,0003.37,0001.77
2022-03-31 21:10:00,,0816.5,4.99,0.00,26.9,26.3,00.0,35.7,28.7,06.9,0000.0,0009.97,0003.36,0001.77
2022-03-31 21:11:00,,0816.4,4.99,0.00,26.9,26.3,00.0,35.7,28.7,06.8,0000.0,0010.36,0003.41,0001.77
2022-03-31 21:12:00,,0816.5,5.01,0.00,26.9,26.3,00.0,35.7,28.7,06.4,0000.0,0010.42,0003.46,0001.78
2022-03-31 21:13:00,,0816.4,4.99,0.00,26.9,26.3,00.0,35.7,28.7,06.2,0000.0,0010.17,0003.52,0001.82
2022-03-31 21:14:00,,0816.5,5.00,0.00,26.9,26.4,00.0,35.8,28.7,06.4,0000.0,0010.95,0003.53,0001.83
2022-03-31 21:15:00,,0816.6,5.01,0.00,26.9,26.4,00.0,35.8,28.7,06.5,0000.0,0011.75,0003.51,0001.84
2022-03-31 21:16:00,,0816.5,5.00,0.00,26.9,26.4,00.0,35.8,28.7,06.5,0000.0,0011.84,0003.55,0001.84
2022-03-31 21:17:00,,0816.6,4.99,0.00,26.9,26.4,00.0,35.8,28.7,06.6,0000.0,0011.96,0003.57,0001.86
2022-03-31 21:18:00,,0816.5,5.00,0.00,27.0,26.4,00.0,35.8,28.8,07.1,0000.0,0011.35,0003.56,0001.85
2022-03-31 21:19:00,,0816.7,5.00,0.00,27.0,26.4,00.0,35.8,28.8,06.6,0000.0,0010.86,0003.60,0001.84
2022-03-31 21:20:00,,0816.4,4.99,0.00,27.0,26.4,00.0,35.8,28.8,06.8,0000.0,0011.37,0003.60,0001.83
2022-03-31 21:21:00,,0816.5,5.00,0.00,27.0,26.4,00.0,35.9,28.8,06.6,0000.0,0011.20,0003.58,0001.83
2022-03-31 21:22:00,,0816.6,4.99,0.00,27.0,26.4,00.0,35.9,28.8,06.6,0000.0,0011.23,0003.52,0001.82
2022-03-31 21:23:00,,0816.5,5.01,0.00,27.0,26.4,00.0,35.9,28.8,06.6,0000.0,0011.31,0003.44,0001.79
2022-03-31 21:24:00,,0816.4,5.00,0.00,27.0,26.3,00.0,35.9,28.8,06.5,0000.0,0011.20,0003.40,0001.76
2022-03-31 21:25:00,,0816.5,4.99,0.00,27.0,26.4,00.0,35.9,28.8,06.9,0000.0,0010.57,0003.40,0001.77
2022-03-31 21:26:00,,0816.5,4.99,0.00,27.0,26.4,00.0,35.9,28.8,06.6,0000.0,0009.95,0003.43,0001.77
2022-03-31 21:27:00,,0816.6,5.02,0.00,27.0,26.4,00.0,35.9,28.8,06.8,0000.0,0009.99,0003.43,0001.78
2022-03-31 21:28:00,,0816.5,5.00,0.00,27.0,26.4,00.0,35.9,28.8,06.7,0000.0,0010.28,0003.42,0001.78
2022-03-31 21:29:00,,0816.4,5.00,0.00,27.0,26.4,00.0,35.9,28.8,06.6,0000.0,0010.23,0003.42,0001.78
2022-03-31 21:30:00,,0816.4,5.00,0.00,27.0,26.5,00.0,35.9,28.8,06.4,0000.0,0010.06,0003.40,0001.78
2022-03-31 21:31:00,,0816.4,5.00,0.00,27.0,26.5,00.0,36.0,28.8,06.5,0000.0,0009.82,0003.43,0001.79
2022-03-31 21:32:00,,0816.4,5.00,0.00,27.1,26.5,00.0,36.0,28.8,06.4,0000.0,0009.47,0003.42,0001.80
2022-03-31 21:33:00,,0816.4,5.00,0.00,27.1,26.5,00.0,36.0,28.9,06.5,0000.0,0009.42,0003.44,0001.81
2022-03-31 21:34:00,,0816.4,4.99,0.00,27.1,26.5,00.0,36.0,28.9,06.6,0000.0,0009.00,0003.45,0001.82
2022-03-31 21:35:00,,0816.4,5.00,0.00,27.1,26.6,00.0,36.0,28.9,06.7,0000.0,0008.96,0003.45,0001.82
2022-03-31 21:36:00,,0816.3,5.02,0.00,27.1,26.6,00.0,36.0,28.9,06.5,0000.0,0008.86,0003.44,0001.79
2022-03-31 21:37:00,,0816.3,4.99,0.00,27.1,26.6,00.0,36.0,28.9,06.7,0000.0,0008.89,0003.43,0001.79
2022-03-31 21:38:00,,0816.3,4.99,0.00,27.1,26.6,00.0,36.0,28.9,06.7,0000.0,0008.64,0003.38,0001.77
2022-03-31 21:39:00,,0816.3,5.01,0.00,27.1,26.6,00.0,36.0,28.9,06.4,0000.0,0008.30,0003.37,0001.76
2022-03-31 21:40:00,,0816.3,4.99,0.00,27.1,26.6,00.0,36.0,28.9,06.2,0000.0,0008.62,0003.34,0001.77
2022-03-31 21:41:00,,0816.3,4.99,0.00,27.1,26.5,00.0,36.1,28.9,06.2,0000.0,0008.71,0003.32,0001.79
2022-03-31 21:42:00,,0816.3,5.01,0.00,27.1,26.5,00.0,36.1,28.9,06.2,0000.0,0008.45,0003.26,0001.78
2022-03-31 21:43:00,,0816.2,5.00,0.00,27.1,26.5,00.0,36.1,28.9,06.4,0000.0,0008.46,0003.28,0001.78
2022-03-31 21:44:00,,0816.3,4.99,0.00,27.2,26.5,00.0,36.1,29.0,06.5,0000.0,0008.46,0003.32,0001.79
2022-03-31 21:45:00,,0816.3,4.99,0.00,27.2,26.6,00.0,36.1,29.0,06.2,0000.0,0008.67,0003.32,0001.80
2022-03-31 21:46:00,,0816.2,4.99,0.00,27.2,26.6,00.0,36.1,29.0,06.1,0000.0,0008.70,0003.32,0001.82
2022-03-31 21:47:00,,0816.1,5.01,0.00,27.2,26.6,00.0,36.1,29.0,06.3,0000.0,0008.74,0003.35,0001.85
2022-03-31 21:48:00,,0816.2,5.00,0.00,27.2,26.6,00.0,36.1,29.0,06.3,0000.0,0008.44,0003.35,0001.86
2022-03-31 21:49:00,,0816.2,5.01,0.00,27.2,26.6,00.0,36.1,29.0,06.3,0000.0,0008.48,0003.39,0001.88
2022-03-31 21:50:00,,0816.2,4.99,0.00,27.2,26.6,00.0,36.1,29.0,06.5,0000.0,0008.56,0003.39,0001.88
2022-03-31 21:51:00,,0816.2,5.01,0.00,27.2,26.6,00.0,36.1,29.0,06.6,0000.0,0009.22,0003.43,0001.88
2022-03-31 21:52:00,,0816.1,4.99,0.00,27.2,26.6,00.0,36.1,29.0,06.4,0000.0,0009.42,0003.52,0001.90
2022-03-31 21:53:00,,0816.1,5.00,0.00,27.2,26.6,00.0,36.1,29.0,06.4,0000.0,0009.53,0003.54,0001.91
2022-03-31 21:54:00,,0816.1,4.99,0.00,27.3,26.7,00.0,36.2,29.0,06.7,0000.0,0009.62,0003.55,0001.92
2022-03-31 21:55:00,,0816.1,5.01,0.00,27.3,26.7,00.0,36.2,29.1,06.6,0000.0,0009.61,0003.53,0001.93
2022-03-31 21:56:00,,0816.2,5.01,0.00,27.3,26.7,00.0,36.2,29.1,06.5,0000.0,0009.21,0003.54,0001.95
2022-03-31 21:57:00,,0816.2,4.99,0.00,27.3,26.7,00.0,36.2,29.1,06.4,0000.0,0009.30,0003.61,0001.96
2022-03-31 21:58:00,,0816.2,5.00,0.00,27.3,26.7,00.0,36.2,29.1,06.4,0000.0,0009.23,0003.59,0001.97
2022-03-31 21:59:00,,0816.2,5.00,0.00,27.3,26.7,00.0,36.2,29.1,06.7,0000.0,0009.23,0003.59,0001.97
